Regional Weather Roundup
Issued by NWS Little Rock, AR

Home | Current Version | Previous Version | Text Only | Print | Product List | Glossary On
Versions: 1 2 3 4 5 6 7 8 9 10 11 12 13 14 15 16 17 18 19 20 21 22 23 24 25 26 27 28 29 30 31 32 33 34 35 36 37 38 39 40 41 42 43 44 45 46 47 48 49 50
000
ASUS44 KLZK 292105
RWRLZK

WEATHER ROUNDUP FOR ARKANSAS
NATIONAL WEATHER SERVICE LITTLE ROCK AR
400 PM CDT WED JUL 29 2015

NOTE: "FAIR" INDICATES FEW OR NO CLOUDS BELOW 12,000 FEET WITH NO
SIGNIFICANT WEATHER AND/OR OBSTRUCTIONS TO VISIBILITY.

ARZ001-003-010-029-292200-
NORTHWEST ARKANSAS

CITY           SKY/WX    TMP DP  RH WIND       PRES   REMARKS
FAYETTEVILLE   SUNNY     92  73  53 NW6       30.07F HX 100
FORT SMITH     SUNNY     97  65  34 NE9       30.01F HX  99
HARRISON       SUNNY     93  67  42 VRB3      30.07F HX  96
BENTONVILLE    SUNNY     93  66  40 CALM      30.09F HX  96
ROGERS         SUNNY     93  68  43 N6        30.09F HX  97
SILOAM SPGS    MOSUNNY   93  70  46 CALM      30.06F HX  99
HIGHFILL       SUNNY     92  72  51 SW3       30.08F HX  99
SPRINGDALE     MOSUNNY   93  70  46 NW3       30.09F HX  99
$$

ARZ004-005-016-292200-
NORTH CENTRAL ARKANSAS

CITY           SKY/WX    TMP DP  RH WIND       PRES   REMARKS
BATESVILLE     SUNNY     97  75  49 W6        29.99F HX 109
FLIPPIN        SUNNY     95  70  43 W5        30.02F HX 101
MTN HOME       SUNNY     92  73  53 NW5       30.03F HX 100
$$

ARZ040-041-292200-
WEST CENTRAL ARKANSAS

CITY           SKY/WX    TMP DP  RH WIND       PRES   REMARKS
MENA           SUNNY    100  63  28 SE5       30.03F HX 102
MOUNT IDA      SUNNY    100  65  31 VRB3      30.00F HX 103
$$

ARZ009-017-025-026-028-292200-
NORTHEAST ARKANSAS

CITY           SKY/WX    TMP DP  RH WIND       PRES   REMARKS
JONESBORO      SUNNY     95  77  55 MISG      29.96F HX 109
NEWPORT        MOSUNNY   99  75  45 W9        29.98F HX 111
WALNUT RIDGE   SUNNY     97  73  46 W8        29.96F HX 107
BLYTHEVILLE    MOSUNNY   96  80  59 NW7       29.96F HX 116
$$

ARZ022-023-033-042-044-292200-
CENTRAL ARKANSAS

CITY           SKY/WX    TMP DP  RH WIND       PRES   REMARKS
LITTLE ROCK    MOSUNNY  100  71  39 VRB7      29.97F HX 108
N LITTLE ROCK  MOSUNNY  100  72  39 S2        29.97F HX 109
JACKSONVILLE   SUNNY     99  70  38 CALM      29.98F HX 106
SEARCY         PTSUNNY   98  75  47 NW6       29.99F HX 110
HOT SPRINGS    CLOUDY    98  68  37 E7        30.00F HX 103
RUSSELLVILLE   SUNNY     97  69  40 S6        29.99F HX 103
CLINTON        LGT RAIN  97  73  46 NW5       30.02F HX 107
$$

ARZ036-292200-
EAST ARKANSAS

CITY           SKY/WX    TMP DP  RH WIND       PRES   REMARKS
WEST MEMPHIS   SUNNY     97  77  52 N6        29.96F HX 112
$$

ARZ050-053-066-070-073-292200-
SOUTHWEST ARKANSAS

CITY           SKY/WX    TMP DP  RH WIND       PRES   REMARKS
ARKADELPHIA    FAIR     103  69  33 W5        29.99F HX 110
CAMDEN         SUNNY    100  68  34 E3        29.99F HX 106
TEXARKANA      SUNNY     99  67  35 SE5       30.00F HX 103
EL DORADO      MOSUNNY   98  69  38 VRB5      29.99F HX 104
DE QUEEN       SUNNY     98  70  40 VRB7      29.98F HX 105
$$

ARZ056-057-069-292200-
SOUTHEAST ARKANSAS

CITY           SKY/WX    TMP DP  RH WIND       PRES   REMARKS
PINE BLUFF     MOSUNNY   99  70  38 CALM      29.98F HX 106
STUTTGART      SUNNY    100  72  39 W3        29.98F HX 109
MONTICELLO     SUNNY     99  72  41 VRB5      29.98F HX 108

$$





USA.gov is the U.S. government's official web portal to all federal, state and local government web resources and services.